Location: Alexandria
(38.8050°N, 77.0470°W)
Time: 23:10:09
(UTC-05:00)

Envisat - Pass Details

Date: 16 February 2018
Orbit: 764 x 766 km, 98.2° (Epoch: 23 February)

Event Time Altitude Azimuth Distance (km) Brightness Sun altitude
Rises 18:38:00 0° 133° (SE) 3,220 5.8 -10.6°
Reaches altitude 10° 18:40:39 10° 120° (ESE) 2,298 5.0 -11.1°
Maximum altitude 18:44:40 24° 67° (ENE) 1,533 4.0 -11.9°
Drops below altitude 10° 18:48:43 10° 14° (NNE) 2,309 5.3 -12.6°
Sets 18:51:23 0° 1° (N) 3,239 6.2 -13.2°
